Regional Weather Roundup
Issued by NWS Jackson, KY

Home | Current Version | Previous Version | Graphics & Text | Print | Product List | Glossary On
Versions: 1 2 3 4 5 6 7 8 9 10 11 12 13 14 15 16 17 18 19 20 21 22 23 24 25 26 27 28 29 30 31 32 33 34 35 36 37 38 39 40 41 42 43 44 45 46 47 48 49 50
000
ASUS43 KJKL 230110
RWRJKL

EAST KENTUCKY HOURLY WEATHER ROUNDUP
NATIONAL WEATHER SERVICE JACKSON KY
900 PM EDT FRI MAY 22 2015

NOTE: "FAIR" INDICATES FEW OR NO CLOUDS BELOW 12,000 FEET WITH
NO SIGNIFICANT WEATHER AND/OR OBSTRUCTIONS TO VISIBILITY.

* THESE REPORTS ARE NOT UNDER NWS QUALITY CONTROL AND MAY NOT
  REPORT WEATHER SUCH AS PRECIPITATION AND FOG.

KYZ079-080-083-085-087-088-110-112-115-119-120-230200
...EASTERN KENTUCKY...

CITY           SKY/WX    TMP DP  RH WIND       PRES   REMARKS
JACKSON        MOCLDY    63  42  46 CALM      30.29R
LONDON         CLEAR     65  40  39 CALM      30.29R
SOMERSET*      PTCLDY    61  45  55 CALM      30.30R
MONTICELLO*    CLEAR     58  49  72 CALM      30.32R
MIDDLESBORO*   CLEAR     60  47  62 W3        30.30R
HARLAN APT*    PTCLDY    59  43  55 CALM      30.30R
HAZARD APT*    CLEAR     61  48  63 CALM      30.29R
PIKEVILLE APT* CLEAR     63  43  48 CALM      30.29R
BIG SANDY*     PTCLDY    65  46  49 CALM      30.28S
MOREHEAD APT*  MOCLDY    66  41  39 SW3       30.29R
$$

KYZ035-036-041-042-044-050-067-078-099-230200
...CENTRAL KENTUCKY...

CITY           SKY/WX    TMP DP  RH WIND       PRES   REMARKS
MT STERLING*   CLOUDY    63  48  59 SW3       30.29R
FLEMING/MASON* CLEAR     64  46  52 S5        30.27R
DANVILLE*      CLEAR     63  45  51 CALM      30.29R
RICHMOND*      CLEAR     64  43  45 CALM      30.28R
LEXINGTON      PTCLDY    64  48  56 S3        30.27R
FRANKFORT      PTCLDY    66  47  50 SW5       30.25R
$$

KYZ091>093-OHZ055-061-077-WVZ005-015-034-035-042-230200
...SOUTHERN OHIO/WEST VIRGINIA...

CITY           SKY/WX    TMP DP  RH WIND       PRES   REMARKS
COVINGTON      CLOUDY    68  45  43 SW5       30.24R
COLUMBUS       MOCLDY    65  38  36 N7        30.23R
DAYTON         MOCLDY    66  44  45 N7        30.24R
WILMINGTON     MOCLDY    67  43  41 N6        30.23R
HUNTINGTON     PTCLDY    63  45  51 SW3       30.24R
CHARLESTON     MOCLDY    64  45  49 SW7       30.24R
PINEVILLE*     CLEAR     54  50  86 MISG      30.34R
BECKLEY        PTCLDY    57  41  55 W5        30.30R
BLUEFIELD      PTCLDY    58  41  53 W6        30.32R
$$

VAZ002-007-008-TNZ017-027-036-066-071-230200
...SOUTHWEST VIRGINIA/EAST TENNESSEE...

CITY           SKY/WX    TMP DP  RH WIND       PRES   REMARKS
WISE*          PTCLDY    57  37  47 CALM      30.34R
JONESVILLE*    PTCLDY    59  48  67 CALM      30.31R
ABINGDON*      CLEAR     59  46  62 CALM      30.31R
BRISTOL        PTCLDY    60  45  57 N3        30.29R
KNOXVILLE      PTCLDY    66  41  40 NE5       30.26R
OAK RIDGE      CLEAR     66  43  43 CALM      30.29R
CROSSVILLE     CLEAR     63  43  48 N5        30.30R
NASHVILLE      PTCLDY    69  44  40 NE3       30.27R
$$

...KEY TO REMARKS...
VSB - VISIBILITY IN MILES
WCI - WIND CHILL INDEX
HX  - HEAT INDEX

$$


USA.gov is the U.S. government's official web portal to all federal, state and local government web resources and services.